Regional Weather Roundup
Issued by NWS Grand Forks, ND

Home | Current Version | Previous Version | Graphics & Text | Print | Product List | Glossary On
Versions: 1 2 3 4 5 6 7 8 9 10 11 12 13 14 15 16 17 18 19 20 21 22 23 24 25 26 27 28 29 30 31 32 33 34 35 36 37 38 39 40 41 42 43 44 45 46 47 48 49 50
000
ASUS43 KFGF 211710
RWRFGF
PRAIRIE TO PINES  WEATHER ROUNDUP
NATIONAL WEATHER SERVICE EASTERN NORTH DAKOTA/GRAND FORKS ND
1100 AM CST SAT JAN 21 2017

 **SATELLITE DATA USED TO AUGMENT SKY COVER AT AUTOMATED STATIONS**
 *****  WEATHER ACROSS EASTERN NORTH DAKOTA  *****

CITY           SKY/WX    TMP DP  RH WIND       PRES   REMARKS
GRAND FORKS    CLOUDY    36  32  85 SE10      29.42S
GRAND FRKS AFB CLOUDY    34  34  99 SE8       29.42R
DEVILS LAKE    SNOW      33  33 100 SE7       29.39R VSB 1/4
FARGO          CLOUDY    39  34  82 SE7       29.41R
WAHPETON ARPT  CLOUDY    34  32  93 SE9       29.41S
$$

 ***** WEATHER ACROSS CENTRAL AND WESTERN NORTH DAKOTA  *****

CITY           SKY/WX    TMP DP  RH WIND       PRES   REMARKS
BISMARCK       CLOUDY    29  26  89 W6        29.37R FOG     WCI  23
MINOT          CLOUDY    30  27  88 SE3       29.34R FOG
JAMESTOWN      SNOW      33  33 100 E7        29.36R VSB 1/2
MINOT AFB      CLOUDY    27  26  96 CALM      29.33S FOG
GARRISON         N/A     22  21  96 CALM      29.34R
WILLISTON      CLOUDY    31  25  78 W6        29.35R
DICKINSON      PTSUNNY   29  24  82 W12       29.32R WCI  19
HETTINGER      CLOUDY    31  26  82 W15       29.36R WCI  20
$$

 *****  OTHER AIRPORT OBSERVATIONS IN OUR AREA  *****

CITY           SKY/WX    TMP DP  RH WIND       PRES   REMARKS
WALHALLA       NOT AVBL
GRAFTON AIRPOR CLOUDY    34  34 100 SE6       29.45S FOG
VALLEY CITY AR LGT RAIN  32  32 100 SE6       29.40R VSB<1/4
CANDO          NOT AVBL
CAVALIER APRT  CLOUDY    34  34 100 SE5       29.44R FOG
GWINNER        CLOUDY    34  34 100 E10       29.38R
SHEYENNE NWR     N/A     34  34 100 SE9       29.95S
ROLLA            N/A    N/A N/A N/A MISG        N/A
 ***** THE ABOVE OBSERVATIONS ARE NON NWS ARE NOT QUALITY
       CONTROLLED AND MAY MIS-REPORT RAIN FOR SNOW...
$$

  *****  WEATHER ACROSS NORTHERN MINNESOTA  *****

CITY           SKY/WX    TMP DP  RH WIND       PRES   REMARKS
FLAG ISLAND    CLOUDY    34  34 100 E9        29.48F FOG
WARROAD        CLOUDY    34  30  86 E7        29.48S
ROSEAU         FAIR      36  30  80 E3        29.46F
HALLOCK        CLOUDY    37  36  93 E9        29.44S
THF RVR FALLS  CLOUDY    36  33  89 E7        29.45S
BAUDETTE       CLOUDY    34  33  96 E6        29.47F
WASKISH        CLOUDY    36  34  93 SE6       29.48R
CROOKSTON      MIX PCPN  36  34  93 SE8       29.44S
GREENBUSH NDAW   N/A     34  34 100 E3          N/A
$$
  *****  WEATHER ACROSS CENTRAL AND WEST MINNESOTA  *****

CITY           SKY/WX    TMP DP  RH WIND       PRES   REMARKS
FOSSTON        CLOUDY    34  34 100 SE7       29.44S
BEMIDJI        FOG       33  33 100 E7        29.46R VSB 1
PARK RAPIDS    CLOUDY    35  32  88 E6        29.42F
ELBOW LAKE     CLOUDY    33  33 100 SE8       29.41S FOG
WADENA         FOG       34  34 100 E3        29.42S VSB 1/2
DETROIT LAKES  PTSUNNY   34  34 100 E6        29.42F
MOORHEAD       CLOUDY    36  34  93 SE5       29.42S
FERGUS FALLS   CLOUDY    36  36 100 SE8       29.45S
MORRIS MN      DRIZZLE   36  34  93 E12       29.39S
STAPLES        DRIZZLE   34  34 100 E5        29.42F
$$
  *****  WEATHER ELSEWHERE ACROSS MINNESOTA  *****

CITY           SKY/WX    TMP DP  RH WIND       PRES   REMARKS
DULUTH         FOG       34  34 100 E9        29.47F VSB 1/4
INTRNTL FALLS  CLOUDY    34  33  96 E8        29.49F
ELY            CLOUDY    34  34 100 CALM      29.50S
CLOQUET        DRIZZLE   34  34 100 E5        29.47F
WHEATON        FOG       43  43 100 E8        29.42S VSB 1
BRAINERD       CLOUDY    34  34 100 NE7       29.44F FOG
HIBBING        CLOUDY    33  33 100 E7        29.48S FOG
ALEXANDRIA     FOG       33  33 100 E9        29.41F VSB 1/4
SAINT CLOUD    FOG       34  34 100 E8        29.43S VSB 1/2
MINNEAPOLIS    CLOUDY    37  34  89 E8        29.42F FOG
$$

  *****  WEATHER ACROSS SOUTH DAKOTA  *****

CITY           SKY/WX    TMP DP  RH WIND       PRES   REMARKS
SIOUX FALLS    CLOUDY    31  31 100 W10       29.39R WCI  22
BROOKINGS      CLOUDY    35  34  96 SE5       29.35S FOG
WATERTOWN      FOG       34  34 100 SE5       29.34S VSB 1
HURON          CLOUDY    29  27  92 W6        29.39R WCI  23
SISSETON         N/A     34  34 100 SE9       29.38S
ABERDEEN       CLOUDY    30  25  81 SW3       29.37R
MITCHELL       CLOUDY    31  28  89 W8        29.41R WCI  23
PIERRE         FOG       27  26  96 W7        29.39R VSB 1/4 WCI  19
MOBRIDGE       CLOUDY    27  24  89 NW8       29.35R FOG     WCI  19
RAPID CITY     FAIR      38  30  73 W5        29.39R
$$

  *****  SOME WEATHER IN NEARBY STATES *****

CITY           SKY/WX    TMP DP  RH WIND       PRES   REMARKS
GLASGOW MT     FOG       15  12  88 W12       29.38R VSB 1/4 WCI   2
GREAT FALLS MT FAIR      23  18  81 SW7       29.40R WCI  15
CHEYENNE WY    FAIR      33  18  53 CALM      29.38R
SCOTTSBLUFF NE FAIR      31  25  78 CALM      29.43R
OMAHA NE       PTSUNNY   44  39  82 W5        29.44F
DES MOINES IA  CLOUDY    45  43  93 SW9       29.44S FOG
DAVENPORT IA   CLOUDY    47  42  83 SW14      29.47R
CHICAGO IL     FAIR      56  47  71 S12       29.50F
EAU CLAIRE WI  CLOUDY    35  35 100 E6        29.43F FOG
LA CROSSE WI   CLOUDY    40  37  89 E6        29.42F FOG
$$

  *****  SOME NATIONAL WEATHER *****

CITY           SKY/WX    TMP DP  RH WIND       PRES   REMARKS
LA GUARDIA NY  PTSUNNY   48  42  80 W9        29.86F
RALEIGH NC     FOG       53  52  96 SE3       29.89F VSB 1/8
ATLANTA GA     RAIN      59  59 100 NE22      29.69F FOG
NEW ORLEANS LA PTSUNNY   69  62  78 SE13      29.72F
OKLAHOMA CITY  CLOUDY    50  37  61 SE5       29.51F
ALBUQUERQUE NM PTSUNNY   38  32  79 S9G18     29.52R
SALT LAKE CITY SNOW      31  30  96 NW9       29.47R VSB 1/2 WCI  23
LOS ANGELES CA FAIR      55  42  61 VRB6      29.88R
BOISE ID       SNOW      32  30  92 S7        29.51R VSB 1/2
SEATTLE WA     CLOUDY    44  35  70 SE5       29.34R
$$

*** WEATHER ACROSS MANITOBA...SASKATCHEWAN AND ONTARIO ***
                ***ONTARIO***

CITY           SKY/WX    TMP DP  RH WIND       PRES   REMARKS
GERALDTON      DRIZZLE   34  34 100 SE5       29.62F FOG
THUNDER BAY    CLOUDY    36  36 100 E9        29.57F FOG
SIOUX LOOKOUT  LGT SNOW  34  34 100 SE3       29.54S FOG
TORONTO        CLOUDY    41  39  93 VRB2      29.75F FOG
BIG TROUT LK   CLOUDY    28  28 100 E7G18     29.69F WCI  21
PICKLE LAKE    LGTSLEET  32  32 100 E7        29.59S FOG
DRYDEN         LGT RAIN  34  34 100 SE8       29.52S
KENORA         NOT AVBL
$$
                *** MANITOBA***

CITY           SKY/WX    TMP DP  RH WIND       PRES   REMARKS
BRANDON        FOG       34  32  93 E7        29.39R VSB 1/2
DAUPHIN        CLOUDY    34  32  93 SE10      29.41R FOG
ISLAND LAKE    LGT RAIN  32  32 100 E3        29.58S FOG
PILOT MOUND      N/A     32  32 100 SE12        N/A  WCI  23
THE PAS        DRIZZLE   34  32  93 E8        29.44R FOG
THOMPSON       FLURRIES  28  28 100 NE7       29.59R WCI  21
WINNIPEG       CLOUDY    36  34  93 SE9       29.46R
LYNN LAKE      LGT SNOW  27  27 100 E6        29.56S VSB 1   WCI  20
CHURCHILL      CLOUDY    16  14  93 SE17G25   29.83S WCI   0
GILLAM         LGT SNOW  28  27  93 E7        29.69S FOG     WCI  21
$$
                ***SASKATCHEWAN***

CITY           SKY/WX    TMP DP  RH WIND       PRES   REMARKS
ESTEVAN        FOG       18  16  93 CALM      29.34R VSB 3/4
KINDERSLEY     FOG       25  23  93 N9        29.40R VSB 1/8 WCI  15
LLOYDMINSTER   FOG       21  19  93 N7        29.45R VSB 1/8 WCI  13
PRINCE ALBERT  CLOUDY    27  23  86 NE6       29.42R WCI  20
REGINA         FOG       23  21  93 S3        29.33R VSB 3/8
YORKTON        LGT SNOW  30  28  93 SE6       29.35R WCI  24
N. BATTLEFORD  CLOUDY    28 N/A N/A N9        29.44R WCI  20
LA RONGE       LGT SNOW  27  25  93 NE8       29.49R VSB 1   WCI  18
SASKATOON      FOG       28  27  93 N8        29.41R VSB 1   WCI  20
SWIFT CURRENT  FRZ RAIN  25  25 100 W9        29.35R VSB 1/8 WCI  15
$$
NOTE: THESE ARE AUTOMATED STATIONS WITH LIMITED QUALITY CONTROL
      "FAIR" INDICATES FEW OR NO CLOUDS BELOW 12,000 FEET WITH NO
      SIGNIFICANT WEATHER AND/OR OBSTRUCTIONS TO VISIBILITY.
      SKY/WX - SKY CONDITION AND SIGNIFICANT WEATHER.
      TMP - AIR TEMPERATURE.    DP   - DEWPOINT TEMPERATURE.
      RH  - RELATIVE HUMIDITY.  PRES - PRESSURE.
      HX  - HEAT INDEX.         WCI  - WIND CHILL INDEX.
$



USA.gov is the U.S. government's official web portal to all federal, state and local government web resources and services.